This is the latest recevied weather packets stored in our database for station/object K3JSE-2. If no packets are shown the sender has not sent any weather packets the latest 1 day(s).
| Time | Temp. | Humidity | Pressure | Rain* | Wind** | Luminosity | Snow |
|---|---|---|---|---|---|---|---|
| 1778037628 | 19.44° C | 56% | 1009.7 hPa | 0 mm | 0.89 m/s, 295° | - | - |
| 1778037358 | 19.44° C | 56% | 1009.7 hPa | 0 mm | 0.45 m/s, 241° | - | - |
| 1778037078 | 19.44° C | 56% | 1009.7 hPa | 0 mm | 0.89 m/s, 281° | - | - |
| 1778037013 | 19.44° C | 56% | 1009.7 hPa | 0 mm | 1.79 m/s, 282° | - | - |
| 1778036795 | 19.44° C | 56% | 1009.7 hPa | 0 mm | 1.79 m/s, 238° | - | - |
| 1778036541 | 19.44° C | 56% | 1009.8 hPa | 0 mm | 0.89 m/s, 242° | - | - |
| 1778036314 | 19.44° C | 56% | 1009.8 hPa | 0 mm | 0.45 m/s, 287° | - | - |
| 1778036298 | 19.44° C | 56% | 1009.8 hPa | 0 mm | 0 m/s | - | - |
| 1778035998 | 19.44° C | 55% | 1009.8 hPa | 0 mm | 0.45 m/s, 164° | - | - |
| 1778035753 | 19.44° C | 55% | 1009.8 hPa | 0 mm | 0 m/s | - | - |
| 1778035542 | 19.44° C | 55% | 1009.8 hPa | 0 mm | 0 m/s | - | - |
| 1778035468 | 19.44° C | 54% | 1009.8 hPa | 0 mm | 0 m/s | - | - |
| 1778035178 | 19.44° C | 55% | 1009.8 hPa | 0 mm | 1.34 m/s, 273° | - | - |
| 1778034901 | 19.44° C | 54% | 1009.8 hPa | 0 mm | 0 m/s | - | - |
| 1778034842 | 19.44° C | 54% | 1009.9 hPa | 0 mm | 0 m/s | - | - |
| 1778034618 | 19.44° C | 54% | 1009.8 hPa | 0 mm | 0.45 m/s, 269° | - | - |
| 1778034321 | 19.44° C | 54% | 1009.8 hPa | 0 mm | 0 m/s | - | - |
| 1778034159 | 20° C | 53% | 1009.9 hPa | 0 mm | 0 m/s | - | - |
| 1778034063 | 20° C | 53% | 1009.9 hPa | 0 mm | 0 m/s | - | - |
| 1778033763 | 20° C | 53% | 1009.8 hPa | 0 mm | 0.45 m/s, 32° | - | - |
| 1778033500 | 20° C | 53% | 1009.8 hPa | 0 mm | 0 m/s | - | - |
| 1778033483 | 20° C | 53% | 1009.8 hPa | 0 mm | 0.89 m/s, 258° | - | - |
| 1778033241 | 20° C | 53% | 1009.8 hPa | 0 mm | 0.45 m/s, 246° | - | - |
| 1778032983 | 20° C | 53% | 1009.9 hPa | 0 mm | 0.45 m/s, 257° | - | - |
| 1778032839 | 20° C | 52% | 1009.8 hPa | 0 mm | 0.89 m/s, 259° | - | - |
* Rain latest hour (hover to see other rain measurements)
** Current wind speed in m/s (hover to see current wind gust speed)